Home   Weather   Zomba   Past weeks

Flag for Malawi Past Weather in Zomba, Malawi — Yesterday and Last 2 Weeks

Now
88 °F

Scattered clouds.


Feels Like: 98 °F
Forecast: 65 / 80 °F
Wind: 5 mph from Northwest

Location: Quelimane Airport

Current Time: Jan 21, 2017 at 12:50:53 pm

Latest Report: Jan 21, 2017 at 10:00 am


Visibility: N/A

Pressure: 29.86 "Hg (27.00 "Hg at 897m altitude)

Humidity: 66%

Dew Point: 75 °F

Location of ZombaLocation

Past Weather in Zomba — Graph

°F

Zomba Temperature Yesterday

Maximum temperature yesterday: 86 °F (at 1:00 pm)
Minimum temperature yesterday: 73 °F (at 5:00 am)
Average temperature yesterday: 80 °F

High & Low Weather Summary for the Past Weeks

 TemperatureHumidityPressure
High95 °F (Jan 6, 1:00 pm)100% (Jan 13, 8:00 am)29.95 "Hg (Jan 13, 8:00 am)
Low73 °F (Jan 18, 6:00 am)50% (Jan 16, 4:00 pm)29.59 "Hg (Jan 14, 3:00 pm)
Average83 °F81%29.78 "Hg
* Reported Jan 6 10:00 am — Jan 21 10:00 am, Zomba, Weather by CustomWeather, © 2017

Note: Actual official high and low records may vary slightly from our data, if they occured in-between our weather recording intervals... More about our weather records

Advertising

Zomba Weather History for the Previous 24 Hours

Scroll right to see more
 ConditionsComfort  
Time TempWeatherWind HumidityBarometerVisibility
10:00 am
Sat, Jan 21
88 °FScattered clouds.5 mph66%29.86 "HgN/A
9:00 am84 °FScattered clouds.5 mph74%29.92 "HgN/A
8:00 am82 °FScattered clouds.10 mph79%29.86 "HgN/A
6:00 am77 °FScattered clouds.6 mph89%29.86 "HgN/A
4:00 am77 °FPassing clouds.12 mph89%29.80 "HgN/A
3:00 am77 °FPartly cloudy.9 mph89%29.80 "HgN/A
2:00 am79 °FPartly cloudy.14 mph84%29.80 "HgN/A
12:00 am81 °FPartly cloudy.14 mph79%29.80 "HgN/A
11:00 pm
Fri, Jan 20
81 °FPartly cloudy.17 mph84%29.83 "HgN/A
10:00 pm82 °FPartly cloudy.16 mph79%29.83 "HgN/A
9:00 pm82 °FPartly cloudy.13 mph84%29.83 "HgN/A
8:00 pm82 °FPartly cloudy.20 mph84%29.80 "HgN/A
7:00 pm82 °FPartly cloudy.2 mph84%29.77 "HgN/A
6:00 pm82 °FBroken clouds.2 mph84%29.77 "HgN/A
4:00 pm86 °FBroken clouds.7 mph70%29.77 "HgN/A
3:00 pm86 °FBroken clouds.6 mph70%29.77 "HgN/A
2:00 pm86 °FBroken clouds.12 mph70%29.80 "HgN/A
1:00 pm86 °FBroken clouds.8 mph70%29.80 "HgN/A
12:00 pm84 °FPartly sunny.15 mph79%29.80 "HgN/A
Weather by CustomWeather, © 2017

See weather overviewHow to use our weather pages